SCP
0 0 0 0 0 0 0 0 0 0 0 0 0 0 0 0 0 0 0 0 0 0 0 0 0 0 0 0 0 0 1 1 1 1 1 1 1 1
0 0 0 0 0 0 0 0 0 0 0 0 0 0 0 0 0 0 0 0 0 0 0 0 0 0 0 0 0 0 0 1 1 1 1 1 1 1
0 0 0 0 0 0 0 0 0 0 0 0 0 0 0 0 0 0 0 0 0 0 0 0 0 0 0 0 0 0 0 0 0 0 1 1 1 1
0 0 0 0 0 0 0 0 0 0 0 0 0 0 0 0 0 0 0 0 0 0 0 0 0 0 0 0 0 0 0 0 0 0 0 1 1 1
0 0 0 0 0 0 0 0 0 0 0 0 0 0 0 0 0 0 0 0 0 0 0 0 0 0 0 0 0 0 0 0 0 0 0 1 1 1
0 0 0 0 0 0 0 0 0 0 0 0 0 0 0 0 0 0 0 0 0 0 0 0 0 0 0 0 0 0 0 0 0 0 0 0 1 1
0 0 0 0 0 0 0 0 0 0 0 0 0 0 0 0 0 0 0 0 0 0 0 0 0 0 0 0 0 0 0 0 0 0 0 0 0 1
0 0 0 0 0 0 0 0 0 0 0 0 0 0 0 0 0 0 0 0 0 0 0 0 0 0 0 0 0 0 0 0 0 0 0 0 0 0
0 0 0 0 0 0 0 0 0 0 0 0 0 0 0 0 0 0 0 0 0 0 0 0 0 0 0 0 0 0 0 0 0 0 0 0 0 0
0 0 0 0 0 0 0 0 0 0 0 0 0 0 0 0 0 0 0 0 0 0 0 0 0 0 0 0 0 0 0 0 0 0 0 0 0 0
0 0 0 0 0 0 0 0 0 0 0 0 0 0 0 0 0 0 0 0 0 0 0 0 0 0 0 0 0 0 0 0 0 0 0 0 0 0
0 0 0 0 0 0 0 0 0 0 0 0 0 0 0 0 0 0 0 0 0 0 0 0 0 0 0 0 0 0 0 0 0 0 0 0 0 0
0 0 0 0 0 0 0 0 0 0 0 0 0 0 0 0 0 0 0 0 0 0 0 0 0 0 0 0 0 0 0 0 0 0 0 0 0 0
0 0 0 0 0 0 0 0 0 0 0 0 0 0 0 0 0 0 0 0 0 0 0 0 0 0 0 0 0 0 0 0 0 0 0 0 0 0
0 0 0 0 0 0 0 0 0 0 0 0 0 0 0 0 0 0 0 0 0 0 0 0 0 0 0 0 0 0 0 0 0 0 0 0 0 0
0 0 0 0 0 0 0 0 0 0 0 0 0 0 0 0 0 0 0 0 0 0 0 0 0 0 0 0 0 0 0 0 0 0 0 0 0 0
0 0 0 0 0 0 0 0 0 0 0 0 0 0 0 0 0 0 0 0 0 0 0 0 0 0 0 0 0 0 0 0 0 0 0 0 0 0
0 0 0 0 0 0 0 0 0 0 0 0 0 0 0 0 0 0 0 0 0 0 0 0 0 0 0 0 0 0 0 0 0 0 0 0 0 0
0 0 0 0 0 0 0 0 0 0 0 0 0 0 0 0 0 0 0 0 0 0 0 0 0 0 0 0 0 0 0 0 0 0 0 0 0 0
0 0 0 0 0 0 0 0 0 0 0 0 0 0 0 0 0 0 0 0 0 0 0 0 0 0 0 0 0 0 0 0 0 0 0 0 0 0
0 0 0 0 0 0 0 0 0 0 0 0 0 0 0 0 0 0 0 0 0 0 0 0 0 0 0 0 0 0 0 0 0 0 0 0 0 0
0 0 0 0 0 0 0 0 0 0 0 0 0 0 0 0 0 0 0 0 0 0 0 0 0 0 0 0 0 0 0 0 0 0 0 0 0 0
0 0 0 0 0 0 0 0 0 0 0 0 0 0 0 0 0 0 0 0 0 0 0 0 0 0 0 0 0 0 0 0 0 0 0 0 0 0
Wind_Speed
2 2 2 1 2 2 2 3 4 2 1 2 1 2 1 1 2 2 2 4 5 6 6 7 7 8 9 10 10 10 10 10 11 11 10 9 9 8
2 3 2 1 2 2 2 2 2 4 2 1 1 1 1 1 2 2 2 4 5 5 5 6 7 7 8 9 9 9 9 10 10 11 10 9 8 7
2 3 2 2 2 2 2 2 2 3 3 1 1 1 1 1 2 2 2 2 2 5 5 5 6 7 7 7 8 8 9 9 10 10 10 10 9 8
2 2 1 2 3 2 2 2 2 2 3 2 1 1 1 1 1 1 2 2 1 4 4 5 5 6 6 7 7 7 8 8 8 9 9 10 10 9
2 2 1 3 2 1 2 2 1 2 2 2 0 1 1 1 1 2 2 2 2 3 4 4 5 5 6 6 6 6 6 7 7 7 8 8 9 9
1 2 2 2 2 2 2 2 2 2 2 2 1 1 1 1 1 1 2 2 2 3 3 4 5 5 6 6 6 5 5 5 6 6 7 7 8 9
1 1 1 2 3 3 2 2 3 2 2 1 0 1 1 1 1 1 1 2 2 2 2 2 3 3 3 5 5 5 5 5 5 6 6 6 7 7
1 0 0 1 2 2 3 4 4 4 3 2 1 1 2 2 1 1 0 1 2 2 1 2 2 2 3 2 4 6 6 6 5 6 6 6 6 7
2 1 1 1 1 1 2 3 2 2 4 4 3 3 2 3 2 1 1 1 3 3 0 2 2 2 3 3 5 5 6 6 6 6 7 7 7 7
2 2 2 1 1 2 2 2 1 1 1 2 3 4 3 3 3 3 2 1 2 2 1 1 2 2 3 3 5 6 6 7 7 7 7 7 7 7
2 2 2 2 3 4 3 2 0 2 1 0 1 1 1 1 2 1 1 1 2 3 1 1 2 2 2 3 4 7 7 7 8 8 8 8 7 6
1 1 3 3 3 4 4 3 2 2 1 2 2 3 2 2 1 2 3 2 1 2 2 1 1 1 3 3 2 3 4 6 8 8 8 8 7 3
2 2 2 3 3 4 4 3 4 2 1 0 1 2 2 2 2 1 2 3 2 3 2 1 1 0 1 3 3 2 2 2 3 4 6 8 7 4
3 2 2 3 3 2 2 3 3 2 1 1 1 1 1 2 2 1 1 1 2 3 2 2 2 2 1 2 3 3 3 2 2 2 3 6 6 7
3 4 4 3 2 1 1 3 2 2 2 1 1 2 2 2 2 1 2 1 1 1 1 1 1 2 2 2 3 3 3 3 2 2 3 2 3 2
2 2 3 2 2 1 1 1 1 2 2 2 2 2 1 1 1 1 1 1 1 2 3 2 1 1 1 2 2 3 2 3 3 3 3 3 3 2
4 2 1 1 1 0 0 0 0 1 1 1 1 1 1 1 1 1 1 0 0 1 3 3 2 1 1 2 2 3 3 3 4 3 2 3 4 3
6 3 2 2 3 2 2 1 1 1 1 1 1 1 1 1 1 1 1 0 0 1 2 2 2 2 2 2 2 2 2 3 4 3 2 3 4 4
4 3 3 3 3 3 2 2 2 2 1 1 1 1 1 1 1 1 1 0 1 1 2 2 1 0 2 4 4 1 2 3 3 3 3 3 4 5
3 4 4 4 3 3 3 3 2 2 1 2 2 1 1 1 1 1 1 1 1 2 2 2 1 2 3 4 3 3 3 3 2 3 4 3 4 6
4 3 3 3 3 3 3 3 3 2 2 2 2 2 1 1 1 1 1 2 2 2 2 3 4 5 2 1 2 4 4 5 5 4 4 3 4 4
4 4 3 3 3 3 3 3 2 2 2 2 2 2 2 2 2 2 2 2 2 3 3 3 3 2 1 2 4 5 5 5 5 7 7 5 3 4
4 4 3 3 3 3 3 3 3 3 2 2 2 2 2 2 2 2 2 2 2 2 2 2 2 1 2 3 4 5 6 6 4 4 4 7 9 10
Wind_Direction
83 83 83 70 82 94 117 135 137 132 315 307 342 339 347 17 10 25 25 31 35 36 36 33 31 30 28 26 24 27 28 27 25 22 21 22 25 28
83 84 73 63 68 79 98 103 124 140 159 265 266 288 355 37 28 13 20 24 19 27 28 29 29 30 30 28 26 25 26 25 24 23 21 21 22 23
72 91 78 71 71 67 76 85 94 117 129 306 333 353 22 18 356 350 359 358 358 20 17 21 24 22 23 23 24 23 24 22 20 20 21 21 21 18
94 92 76 84 74 66 78 88 95 114 131 138 326 340 314 285 318 343 359 10 343 10 14 19 18 20 22 20 20 20 20 19 19 18 19 19 16 9
129 123 117 106 90 81 88 95 95 93 110 131 200 318 323 336 2 356 2 344 344 14 12 11 14 15 11 12 13 13 13 13 13 15 15 15 12 7
132 138 137 140 153 141 118 127 120 94 88 99 69 345 331 336 38 7 349 344 337 355 360 5 6 3 358 360 2 5 6 8 9 10 11 10 8 3
92 114 145 151 157 153 142 155 136 121 110 100 69 3 335 345 308 285 318 321 322 336 339 337 342 343 340 342 351 359 0 360 0 3 2 360 360 358
138 112 80 112 121 129 131 148 153 151 158 151 180 221 264 255 252 235 241 4 318 312 356 314 345 325 316 319 342 352 353 355 353 349 349 350 348 348
173 176 129 95 101 108 93 83 103 129 157 164 180 220 231 228 203 229 219 212 243 271 60 301 317 305 300 329 341 347 351 352 351 346 345 345 342 340
180 175 174 226 183 150 127 93 23 308 227 180 194 222 223 221 199 200 208 223 280 293 149 268 303 293 306 312 332 344 350 351 350 349 347 343 340 340
209 191 184 205 201 161 137 146 310 318 342 118 228 256 271 257 190 125 89 74 312 300 284 184 290 300 302 301 320 341 346 345 342 340 338 338 338 339
243 224 206 204 206 173 159 165 195 261 314 7 6 0 356 352 11 169 179 175 215 285 278 181 283 337 322 302 306 322 330 334 338 340 341 341 342 344
206 235 237 208 190 181 171 177 195 191 155 99 7 351 351 349 335 305 187 175 186 237 254 168 221 255 251 294 307 305 312 311 317 321 332 338 340 343
203 218 219 198 182 177 173 173 166 133 109 83 43 337 323 314 306 304 264 211 208 223 246 177 196 217 234 281 292 305 310 304 300 301 307 325 326 328
197 196 189 180 165 155 158 159 144 132 128 132 234 266 268 277 303 330 336 334 333 318 320 226 208 226 206 235 271 287 302 304 297 299 300 297 290 302
170 145 125 113 109 105 82 98 145 158 161 193 232 265 297 326 333 326 314 323 357 328 327 318 291 213 237 252 248 280 282 289 303 299 292 289 289 283
142 108 97 99 104 87 358 300 142 137 179 210 215 255 292 312 312 320 316 355 325 300 320 331 332 314 241 229 263 277 284 287 287 292 303 298 287 282
141 152 178 186 196 203 199 203 203 206 212 203 207 216 236 262 298 326 342 259 273 295 301 310 338 354 350 325 243 262 286 289 296 300 291 291 293 294
154 178 190 198 204 204 200 198 209 220 205 192 200 212 214 240 278 309 319 311 284 284 290 299 319 343 316 305 297 268 276 294 302 303 290 276 278 289
181 189 199 202 200 200 200 202 203 201 196 198 202 209 208 216 247 272 271 248 263 278 296 304 281 252 252 268 277 292 290 280 290 292 292 288 277 283
198 200 202 201 201 200 200 198 192 193 195 196 205 209 208 199 232 255 265 268 261 264 277 280 273 280 265 291 294 289 283 276 275 279 287 294 298 298
197 201 204 200 195 193 191 190 190 190 191 197 204 209 210 204 221 246 255 259 254 254 264 275 290 298 268 261 277 287 294 299 297 299 293 283 281 285
195 195 196 195 196 191 187 189 192 199 201 201 204 209 210 220 226 232 244 251 261 264 271 285 297 288 267 263 275 287 295 300 301 302 296 303 300 292